Latest Weather Observations for Mt Wellington

IDT60901

Issued at 11:51 am EDT Monday 2 March 2015 (issued every 10 minutes, with the page automatically refreshed every 10 minutes)

About weather observations | Map of Hobart area stations | Latest observations for Hobart area | Other Formats
Station Details ID: 094087 Name: MOUNT WELLINGTON Lat: -42.90 Lon: 147.24 Height: 1260.47 m
Data from the previous 72 hours. | See also: Recent months at Mt Wellington
Date/Time
EDT
Tmp

°C
App
Tmp
°C
Dew
Point
°C
Rel
Hum
%
Delta-T

°C
Wind Press
QNH
hPa
Press
MSL
hPa
Rain
since
9 am
mm
Dir
 
Spd
km/h
Gust
km/h
Spd
kts
Gust
kts
02/11:44am 6.5 -0.5 4.0 84 1.2 NNW 30 50 16 27 - - 0.0
02/11:30am 6.3 -0.3 4.3 87 0.9 NNW 28 39 15 21 - - 0.0
02/11:00am 6.1 -0.5 4.3 88 0.8 NNW 28 39 15 21 - - 0.0
02/10:30am 5.7 -0.5 4.5 92 0.6 NNW 26 37 14 20 - - 0.0
02/10:00am 4.5 -2.5 4.1 97 0.2 NNW 30 39 16 21 - - 0.0
02/09:30am 4.3 -2.4 3.9 97 0.2 NNW 28 37 15 20 - - 0.0
02/09:00am 4.0 -2.7 3.4 96 0.3 NNW 28 33 15 18 - - 2.6
02/08:30am 4.4 -2.8 2.8 89 0.7 NNW 30 39 16 21 - - 2.6
02/08:00am 4.4 -3.8 2.8 89 0.7 NNW 35 43 19 23 - - 2.6
02/07:30am 4.2 -4.5 2.2 87 0.9 NNW 37 46 20 25 - - 2.6
02/07:00am 3.6 -4.4 0.1 78 1.4 NNW 32 37 17 20 - - 2.6
02/06:30am 3.3 -4.2 0.9 84 1.0 NW 30 39 16 21 - - 2.6
02/06:00am 3.0 -5.2 0.6 84 1.0 NW 33 44 18 24 - - 2.6
02/05:30am 2.7 -5.1 -0.6 79 1.3 NW 30 37 16 20 - - 2.6
02/05:00am 2.7 -5.7 -2.2 70 1.9 NW 32 39 17 21 - - 2.6
02/04:30am 3.4 -5.2 -7.7 44 3.9 NW 30 35 16 19 - - 2.6
02/04:00am 3.0 -4.7 -6.1 51 3.3 NW 26 32 14 17 - - 2.6
02/03:30am 1.5 -4.1 -2.6 74 1.6 NNW 17 22 9 12 - - 2.6
02/03:00am 0.9 -3.0 -1.3 85 0.8 N 9 15 5 8 - - 2.6
02/02:30am 1.9 -3.3 -2.6 72 1.7 NNW 15 28 8 15 - - 2.6
02/02:00am 1.2 -3.8 -1.5 82 1.0 NW 15 20 8 11 - - 2.6
02/01:30am 0.8 -4.1 -0.6 90 0.5 NW 15 20 8 11 - - 2.6
02/01:00am 0.4 -4.5 -0.6 93 0.4 WNW 15 20 8 11 - - 2.6
02/12:30am 0.3 -4.6 -0.3 96 0.2 W 15 20 8 11 - - 2.6
02/12:00am 0.9 -4.2 0.5 97 0.2 WSW 17 24 9 13 - - 2.6
 
Date/Time
EDT
Tmp

°C
App
Tmp
°C
Dew
Point
°C
Rel
Hum
%
Delta-T

°C
Wind Press
QNH
hPa
Press
MSL
hPa
Rain
since
9 am
mm
Dir
 
Spd
km/h
Gust
km/h
Spd
kts
Gust
kts
01/11:30pm 1.3 -3.0 0.9 97 0.2 WSW 13 19 7 10 - - 2.6
01/11:00pm 1.5 -2.4 1.1 97 0.2 SSW 11 17 6 9 - - 2.6
01/10:30pm 1.5 -5.3 0.9 96 0.2 WSW 26 32 14 17 - - 2.6
01/10:00pm 2.0 -2.7 1.1 94 0.4 WSW 15 22 8 12 - - 2.6
01/09:30pm 2.2 -2.5 0.9 91 0.5 WSW 15 28 8 15 - - 2.6
01/09:00pm 1.8 -3.3 0.5 91 0.5 SW 17 26 9 14 - - 2.6
01/08:30pm 2.2 -5.0 0.6 89 0.7 WSW 28 39 15 21 - - 2.6
01/08:00pm 2.6 -4.2 1.0 89 0.7 WSW 26 44 14 24 - - 2.6
01/07:52pm 2.9 -5.9 1.1 88 0.8 WSW 37 56 20 30 - - 2.6
01/07:30pm 3.2 -4.4 0.8 84 1.0 W 30 43 16 23 - - 2.6
01/07:19pm 3.6 -2.0 1.0 83 1.1 W 20 30 11 16 - - 2.6
01/07:00pm 4.3 -4.8 1.8 84 1.1 WSW 39 52 21 28 - - 2.6
01/06:30pm 5.0 -1.1 2.9 86 0.9 W 24 35 13 19 - - 2.6
01/06:00pm 4.6 -2.9 3.7 94 0.4 WSW 32 43 17 23 - - 2.6
01/05:30pm 5.6 0.2 4.7 94 0.4 WSW 22 32 12 17 - - 2.6
01/05:00pm 6.1 -0.2 5.5 96 0.3 WSW 28 39 15 21 - - 2.6
01/04:30pm 4.8 -3.1 4.4 97 0.2 WSW 35 44 19 24 - - 2.6
01/04:00pm 6.0 -3.3 5.7 98 0.1 WSW 44 59 24 32 - - 2.6
01/03:55pm 5.8 -2.6 5.5 98 0.1 WSW 39 57 21 31 - - 2.6
01/03:30pm 6.3 -2.8 5.9 97 0.2 WSW 43 57 23 31 - - 2.4
01/03:00pm 5.9 -3.3 5.6 98 0.1 WSW 43 50 23 27 - - 2.4
01/02:30pm 5.7 -3.7 5.4 98 0.1 WSW 44 56 24 30 - - 2.4
01/02:00pm 5.5 -2.2 5.2 98 0.1 WSW 35 50 19 27 - - 2.4
01/01:46pm 4.8 -1.8 4.4 97 0.2 WSW 28 50 15 27 - - 2.2
01/01:30pm 6.0 0.1 5.7 98 0.1 W 26 35 14 19 - - 1.2
01/01:00pm 5.3 -2.9 5.0 98 0.1 WSW 37 46 20 25 - - 1.2
01/12:30pm 5.3 -0.8 5.0 98 0.1 WSW 26 43 14 23 - - 0.6
01/12:00pm 5.2 -2.0 4.8 97 0.2 WSW 32 43 17 23 - - 0.2
01/11:30am 4.8 -4.8 4.5 98 0.1 WSW 44 63 24 34 - - 0.2
01/11:07am 4.2 -3.4 3.9 98 0.1 WSW 33 54 18 29 - - 0.2
01/11:00am 4.3 -3.3 4.0 98 0.1 SW 33 46 18 25 - - 0.2
01/10:30am 4.0 -3.5 3.7 98 0.1 WSW 32 52 17 28 - - 0.2
01/10:00am 4.1 -6.0 3.8 98 0.1 WSW 46 69 25 37 - - 0.2
01/09:33am 4.0 -4.0 3.7 98 0.1 WSW 35 54 19 29 - - 0.2
01/09:30am 4.1 -3.9 3.8 98 0.1 WSW 35 52 19 28 - - 0.2
01/09:00am 3.9 -6.6 3.6 98 0.1 WSW 48 57 26 31 - - 3.0
01/08:30am 4.0 -6.5 3.7 98 0.1 WSW 48 63 26 34 - - 3.0
01/08:10am 4.0 -8.0 3.7 98 0.1 WSW 56 76 30 41 - - 2.8
01/08:00am 4.1 -7.1 3.8 98 0.1 WSW 52 67 28 36 - - 2.8
01/07:30am 4.3 -7.3 4.0 98 0.1 WSW 54 76 29 41 - - 2.8
01/07:16am 4.4 -6.8 4.1 98 0.1 WSW 52 72 28 39 - - 2.8
01/07:00am 4.5 -5.1 4.2 98 0.1 SW 44 59 24 32 - - 2.6
01/06:47am 4.8 -2.5 4.5 98 0.1 SW 32 57 17 31 - - 2.4
01/06:30am 4.8 -2.1 4.5 98 0.1 SW 30 37 16 20 - - 2.0
01/06:00am 4.7 -4.3 4.3 97 0.2 WSW 41 54 22 29 - - 1.6
01/05:30am 4.8 -2.7 4.4 97 0.2 WSW 33 48 18 26 - - 1.6
01/05:00am 4.8 -3.9 4.2 96 0.3 WSW 39 54 21 29 - - 1.6
01/04:33am 4.9 -6.6 4.3 96 0.3 W 54 72 29 39 - - 1.6
01/04:30am 4.9 -7.0 4.2 95 0.3 W 56 72 30 39 - - 1.6
01/04:00am 5.1 -6.1 4.1 93 0.5 WSW 52 76 28 41 - - 1.6
01/03:30am 5.3 -4.8 3.8 90 0.7 W 46 72 25 39 - - 1.6
01/03:20am 5.4 -5.9 3.7 89 0.8 W 52 72 28 39 - - 1.6
01/03:19am 5.4 -5.9 3.7 89 0.8 W 52 72 28 39 - - 1.6
01/03:00am 5.5 -7.4 4.2 91 0.6 W 61 82 33 44 - - 1.6
01/02:30am 5.7 -7.1 4.3 91 0.6 W 61 85 33 46 - - 1.6
01/02:00am 6.0 -6.9 4.2 88 0.8 W 61 89 33 48 - - 1.6
01/01:30am 6.3 -7.1 5.3 93 0.5 WNW 65 83 35 45 - - 1.6
01/01:04am 6.5 -5.3 5.6 94 0.4 WNW 57 80 31 43 - - 1.6
01/01:00am 6.4 -5.3 5.5 94 0.4 WNW 56 69 30 37 - - 1.6
01/12:40am 6.8 -2.9 5.6 92 0.6 WNW 46 67 25 36 - - 1.6
01/12:30am 6.8 -2.6 5.4 91 0.7 WNW 44 61 24 33 - - 1.6
01/12:01am 7.4 -1.3 5.9 90 0.7 W 41 65 22 35 - - 1.6
01/12:00am 7.5 -1.2 6.1 91 0.7 W 41 59 22 32 - - 1.6
 
Date/Time
EDT
Tmp

°C
App
Tmp
°C
Dew
Point
°C
Rel
Hum
%
Delta-T

°C
Wind Press
QNH
hPa
Press
MSL
hPa
Rain
since
9 am
mm
Dir
 
Spd
km/h
Gust
km/h
Spd
kts
Gust
kts
28/11:45pm 8.2 -1.1 6.0 86 1.1 W 44 65 24 35 - - 1.6
28/11:30pm 8.2 -2.1 6.3 88 0.9 W 50 63 27 34 - - 1.6
28/11:01pm 9.0 -0.4 7.1 88 1.0 WNW 46 67 25 36 - - 1.6
28/11:00pm 9.1 -0.3 7.2 88 1.0 WNW 46 63 25 34 - - 1.6
28/10:33pm 9.6 2.0 9.0 96 0.3 WNW 39 57 21 31 - - 1.6
28/10:30pm 9.6 2.0 9.0 96 0.3 WNW 39 52 21 28 - - 1.6
28/10:00pm 9.8 2.2 9.2 96 0.3 WNW 39 48 21 26 - - 1.6
28/09:30pm 10.2 3.1 9.6 96 0.3 WNW 37 46 20 25 - - 1.6
28/09:06pm 10.4 3.8 10.1 98 0.2 WNW 35 54 19 29 - - 1.6
28/09:00pm 10.4 3.8 10.1 98 0.2 WNW 35 44 19 24 - - 1.6
28/08:30pm 10.5 3.2 10.2 98 0.2 WNW 39 48 21 26 - - 1.6
28/08:07pm 10.7 3.1 10.4 98 0.2 NW 41 61 22 33 - - 1.6
28/08:00pm 10.7 2.5 10.4 98 0.2 NW 44 56 24 30 - - 1.6
28/07:30pm 10.7 3.1 10.4 98 0.2 NW 41 54 22 29 - - 1.6
28/07:00pm 10.8 2.6 10.5 98 0.2 NW 44 59 24 32 - - 1.6
28/06:30pm 10.6 0.1 10.3 98 0.2 NW 56 69 30 37 - - 1.6
28/06:00pm 10.5 0.0 10.2 98 0.2 NW 56 69 30 37 - - 1.6
28/05:30pm 10.0 0.0 9.5 97 0.3 NW 52 67 28 36 - - 1.6
28/05:00pm 10.1 -0.2 9.5 96 0.3 NNW 54 72 29 39 - - 1.6
28/04:30pm 9.9 -0.5 9.1 95 0.4 NNW 54 67 29 36 - - 1.6
28/04:00pm 9.4 -1.7 8.8 96 0.3 NNW 57 70 31 38 - - 1.6
28/03:30pm 9.2 -1.9 8.6 96 0.3 NW 57 78 31 42 - - 1.4
28/03:08pm 8.6 -2.7 7.8 95 0.4 NW 57 76 31 41 - - 1.4
28/03:00pm 8.8 -2.9 8.0 95 0.4 NW 59 76 32 41 - - 1.4
28/02:30pm 8.6 -2.8 7.7 94 0.5 NW 57 72 31 39 - - 1.4
28/02:19pm 8.3 -3.1 7.5 95 0.4 NW 57 76 31 41 - - 1.4
28/02:00pm 7.8 -3.7 7.1 95 0.4 NW 57 70 31 38 - - 1.2
28/01:30pm 7.7 -3.4 6.3 91 0.7 NW 54 70 29 38 - - 1.2
28/01:23pm 7.6 -2.7 6.7 94 0.4 NW 50 70 27 38 - - 1.2
28/01:00pm 7.3 -1.8 6.1 92 0.6 NW 43 52 23 28 - - 1.2
28/12:30pm 7.4 -2.7 5.9 90 0.7 NNW 48 56 26 30 - - 1.2
28/12:00pm 6.8 -4.0 6.1 95 0.3 NW 52 69 28 37 - - 1.0
28/11:30am 7.7 -3.2 5.3 85 1.2 NW 52 65 28 35 - - 0.0
28/11:00am 7.2 -4.5 5.2 87 1.0 NNW 56 65 30 35 - - 0.0
28/10:30am 7.6 -2.2 5.1 84 1.2 NNW 46 59 25 32 - - 0.0
28/10:00am 7.9 -1.7 4.5 79 1.6 NW 44 56 24 30 - - 0.0
28/09:30am 8.6 -0.6 5.5 81 1.5 NNW 43 50 23 27 - - 0.0
28/09:00am 8.1 -1.0 6.6 90 0.7 NW 44 54 24 29 - - 1.4
28/08:30am 7.2 -1.7 6.9 98 0.1 NNW 43 48 23 26 - - 1.4
28/08:00am 6.6 -2.0 6.3 98 0.1 NNW 41 48 22 26 - - 1.4
28/07:30am 5.8 -2.6 5.5 98 0.1 NNW 39 44 21 24 - - 1.2
28/07:00am 5.4 -2.4 5.1 98 0.1 NNW 35 41 19 22 - - 1.2
28/06:30am 5.5 -2.2 5.2 98 0.1 N 35 39 19 21 - - 1.0
28/06:00am 5.4 -2.0 5.1 98 0.1 NNW 33 39 18 21 - - 0.8
28/05:30am 5.3 -1.9 5.0 98 0.1 NNW 32 39 17 21 - - 0.8
28/05:00am 5.4 -1.4 5.1 98 0.1 NNW 30 33 16 18 - - 0.8
28/04:30am 5.5 -1.3 5.2 98 0.1 NNW 30 35 16 19 - - 0.6
28/04:00am 5.4 -2.0 5.1 98 0.1 NNW 33 43 18 23 - - 0.6
28/03:30am 5.3 -1.5 5.0 98 0.1 N 30 39 16 21 - - 0.6
28/03:00am 5.1 -1.8 4.8 98 0.1 N 30 35 16 19 - - 0.6
28/02:30am 5.1 -1.0 4.8 98 0.1 N 26 35 14 19 - - 0.6
28/02:00am 4.7 -0.1 4.4 98 0.1 N 19 20 10 11 - - 0.6
28/01:30am 4.2 0.0 3.9 98 0.1 N 15 17 8 9 - - 0.6
28/01:00am 4.6 0.9 4.3 98 0.1 N 13 17 7 9 - - 0.4
28/12:30am 4.8 1.5 4.5 98 0.1 N 11 15 6 8 - - 0.4
28/12:00am 4.7 2.1 4.4 98 0.1 N 7 9 4 5 - - 0.4
 
Date/Time
EDT
Tmp

°C
App
Tmp
°C
Dew
Point
°C
Rel
Hum
%
Delta-T

°C
Wind Press
QNH
hPa
Press
MSL
hPa
Rain
since
9 am
mm
Dir
 
Spd
km/h
Gust
km/h
Spd
kts
Gust
kts
27/11:30pm 5.0 1.3 4.7 98 0.1 N 13 15 7 8 - - 0.4
27/11:00pm 5.1 2.6 4.8 98 0.1 N 7 11 4 6 - - 0.4
27/10:30pm 5.3 2.5 5.0 98 0.1 NNW 9 13 5 7 - - 0.4
27/10:00pm 5.4 2.6 5.1 98 0.1 NNW 9 11 5 6 - - 0.2
27/09:30pm 5.7 3.0 5.4 98 0.1 NNW 9 15 5 8 - - 0.2
27/09:00pm 6.0 2.9 5.7 98 0.1 NNW 11 13 6 7 - - 0.2
27/08:30pm 5.8 2.7 5.5 98 0.1 NW 11 15 6 8 - - 0.2
27/08:00pm 5.4 1.8 5.1 98 0.1 WNW 13 17 7 9 - - 0.2
27/07:30pm 5.6 1.7 5.3 98 0.1 W 15 17 8 9 - - 0.2
27/07:00pm 5.7 1.8 5.4 98 0.1 W 15 19 8 10 - - 0.2
27/06:30pm 5.9 1.3 5.6 98 0.1 W 19 22 10 12 - - 0.2
27/06:00pm 6.1 0.6 5.8 98 0.1 WSW 24 28 13 15 - - 0.2
27/05:30pm 6.4 1.7 6.1 98 0.1 SSW 20 26 11 14 - - 0.2
27/05:00pm 7.1 3.1 6.7 97 0.2 S 17 22 9 12 - - 0.0
27/04:30pm 8.0 4.9 7.4 96 0.3 SW 13 19 7 10 - - 0.0
27/04:00pm 8.5 5.0 7.4 93 0.6 WSW 15 22 8 12 - - 0.0
27/03:30pm 8.1 3.8 7.7 97 0.2 WSW 20 26 11 14 - - 0.0
27/03:00pm 7.7 3.5 7.3 97 0.2 W 19 24 10 13 - - 0.0
27/02:30pm 8.2 5.6 7.9 98 0.2 NW 11 22 6 12 - - 0.0
27/02:00pm 7.6 5.3 7.3 98 0.2 NNW 9 19 5 10 - - 0.0
27/01:30pm 7.1 4.3 6.8 98 0.1 N 11 20 6 11 - - 0.0
27/01:00pm 7.4 4.3 7.1 98 0.1 NW 13 19 7 10 - - 0.0
27/12:30pm 7.4 5.0 7.1 98 0.1 NNW 9 17 5 9 - - 0.0
27/12:00pm 6.7 3.4 6.4 98 0.1 NNW 13 20 7 11 - - 0.0

Latest Capital City Observations: Canberra | Sydney | Melbourne | Brisbane | Adelaide | Perth | Hobart | Darwin

Other Formats:

Comma delimited format used in spreadsheet applications
http://www.bom.gov.au/fwo/IDT60901/IDT60901.95979.axf

JavaScript Object Notation format (JSON) in row-major order
http://www.bom.gov.au/fwo/IDT60901/IDT60901.95979.json